| time (UTC) | temp F | wind direction | speed MPH | gust MPH | rain 1hr in | rain 24hr in | rain mn in | humidity % | barometer mb |
| 20260903022025 | 70 | 95 | 0.0 | 2.0 | 0.00 | 0.00 | 0.00 | 39 | 1024.9 |
| 20260903021545 | 71 | 0 | 0.0 | 0.0 | 0.00 | 0.00 | 0.00 | 37 | 1024.7 |
| 20260903021024 | 72 | 0 | 0.0 | 0.0 | 0.00 | 0.00 | 0.00 | 37 | 1024.8 |
| 20260903020527 | 73 | 0 | 0.0 | 0.0 | 0.00 | 0.00 | 0.00 | 36 | 1024.7 |
| 20260903020100 | 74 | 0 | 0.0 | 0.0 | 0.00 | 0.00 | 0.00 | 35 | 1024.7 |
| 20260903015525 | 75 | 0 | 0.0 | 0.0 | 0.00 | 0.00 | 0.00 | 34 | 1024.7 |
| 20260903015023 | 76 | 0 | 0.0 | 2.0 | 0.00 | 0.00 | 0.00 | 33 | 1024.7 |
| 20260903014545 | 76 | 0 | 0.0 | 2.0 | 0.00 | 0.00 | 0.00 | 32 | 1024.6 |
| 20260903014024 | 77 | 0 | 0.0 | 4.0 | 0.00 | 0.00 | 0.00 | 31 | 1024.6 |
| 20260903013525 | 77 | 0 | 0.0 | 4.0 | 0.00 | 0.00 | 0.00 | 30 | 1024.5 |
| 20260903013042 | 78 | 94 | 1.0 | 6.0 | 0.00 | 0.00 | 0.00 | 30 | 1024.5 |
| 20260903012526 | 79 | 94 | 0.0 | 8.0 | 0.00 | 0.00 | 0.00 | 29 | 1024.6 |
| 20260903012027 | 79 | 90 | 2.0 | 9.0 | 0.00 | 0.00 | 0.00 | 29 | 1024.5 |
| 20260903011545 | 79 | 71 | 3.0 | 9.0 | 0.00 | 0.00 | 0.00 | 28 | 1024.5 |
| 20260903011024 | 80 | 112 | 3.0 | 9.0 | 0.00 | 0.00 | 0.00 | 27 | 1024.5 |
| 20260903010526 | 80 | 112 | 3.0 | 9.0 | 0.00 | 0.00 | 0.00 | 27 | 1024.5 |
| 20260903010057 | 81 | 104 | 5.0 | 11.0 | 0.00 | 0.00 | 0.00 | 27 | 1024.6 |
| 20260903005524 | 81 | 92 | 3.0 | 11.0 | 0.00 | 0.00 | 0.00 | 27 | 1024.6 |
| 20260903005028 | 81 | 90 | 5.0 | 13.0 | 0.00 | 0.00 | 0.00 | 27 | 1024.7 |
| 20260903004542 | 81 | 109 | 5.0 | 15.0 | 0.00 | 0.00 | 0.00 | 27 | 1024.5 |
| 20260903004028 | 81 | 147 | 6.0 | 15.0 | 0.00 | 0.00 | 0.00 | 27 | 1024.5 |
| 20260903003523 | 82 | 113 | 7.0 | 15.0 | 0.00 | 0.00 | 0.00 | 27 | 1024.5 |
| 20260903003050 | 82 | 170 | 6.0 | 13.0 | 0.00 | 0.00 | 0.00 | 26 | 1024.5 |
| 20260903002526 | 82 | 130 | 6.0 | 15.0 | 0.00 | 0.00 | 0.00 | 26 | 1024.5 |
| 20260903002026 | 82 | 167 | 5.0 | 15.0 | 0.00 | 0.00 | 0.00 | 25 | 1024.6 |
| 20260903001603 | 82 | 115 | 8.0 | 15.0 | 0.00 | 0.00 | 0.00 | 25 | 1024.6 |
| 20260903001025 | 83 | 102 | 7.0 | 15.0 | 0.00 | 0.00 | 0.00 | 25 | 1024.7 |
| 20260903000525 | 83 | 61 | 7.0 | 16.0 | 0.00 | 0.00 | 0.00 | 27 | 1024.7 |
| 20260903000045 | 83 | 130 | 5.0 | 16.0 | 0.00 | 0.00 | 0.00 | 26 | 1024.7 |
| 20260902235530 | 83 | 105 | 8.0 | 16.0 | 0.00 | 0.00 | 0.00 | 26 | 1024.7 |
| 20260902235024 | 83 | 92 | 3.0 | 11.0 | 0.00 | 0.00 | 0.00 | 27 | 1024.8 |
| 20260902234543 | 82 | 96 | 5.0 | 15.0 | 0.00 | 0.00 | 0.00 | 27 | 1024.9 |
| 20260902234030 | 82 | 189 | 7.0 | 17.0 | 0.00 | 0.00 | 0.00 | 26 | 1024.9 |
| 20260902233523 | 83 | 184 | 9.0 | 17.0 | 0.00 | 0.00 | 0.00 | 27 | 1024.9 |
| 20260902233054 | 82 | 146 | 9.0 | 17.0 | 0.00 | 0.00 | 0.00 | 27 | 1025.0 |
| 20260902232527 | 83 | 106 | 10.0 | 17.0 | 0.00 | 0.00 | 0.00 | 26 | 1024.9 |
| 20260902232024 | 83 | 24 | 8.0 | 20.0 | 0.00 | 0.00 | 0.00 | 26 | 1024.9 |
| 20260902231542 | 83 | 132 | 8.0 | 20.0 | 0.00 | 0.00 | 0.00 | 26 | 1025.1 |
| 20260902231024 | 84 | 128 | 6.0 | 11.0 | 0.00 | 0.00 | 0.00 | 26 | 1025.0 |
| 20260902230524 | 84 | 68 | 6.0 | 14.0 | 0.00 | 0.00 | 0.00 | 27 | 1025.1 |
| 20260902230041 | 83 | 69 | 5.0 | 14.0 | 0.00 | 0.00 | 0.00 | 26 | 1025.2 |
| 20260902225524 | 83 | 110 | 9.0 | 15.0 | 0.00 | 0.00 | 0.00 | 26 | 1025.2 |
| 20260902225028 | 83 | 148 | 8.0 | 16.0 | 0.00 | 0.00 | 0.00 | 26 | 1025.1 |
| 20260902224552 | 82 | 103 | 9.0 | 16.0 | 0.00 | 0.00 | 0.00 | 28 | 1025.2 |
| 20260902224023 | 82 | 188 | 7.0 | 13.0 | 0.00 | 0.00 | 0.00 | 27 | 1025.3 |
| 20260902223525 | 83 | 146 | 7.0 | 13.0 | 0.00 | 0.00 | 0.00 | 26 | 1025.2 |
| 20260902223048 | 84 | 159 | 6.0 | 14.0 | 0.00 | 0.00 | 0.00 | 27 | 1025.2 |
| 20260902222527 | 83 | 109 | 8.0 | 20.0 | 0.00 | 0.00 | 0.00 | 26 | 1025.2 |
| 20260902222028 | 84 | 155 | 10.0 | 23.0 | 0.00 | 0.00 | 0.00 | 26 | 1025.2 |
| 20260902221608 | 84 | 115 | 10.0 | 23.0 | 0.00 | 0.00 | 0.00 | 26 | 1025.3 |
| 20260902221028 | 83 | 75 | 5.0 | 19.0 | 0.00 | 0.00 | 0.00 | 26 | 1025.2 |
| 20260902220525 | 83 | 94 | 10.0 | 19.0 | 0.00 | 0.00 | 0.00 | 25 | 1025.4 |
| 20260902220044 | 84 | 176 | 8.0 | 21.0 | 0.00 | 0.00 | 0.00 | 26 | 1025.4 |
| 20260902215526 | 84 | 93 | 9.0 | 21.0 | 0.00 | 0.00 | 0.00 | 26 | 1025.5 |
| 20260902215026 | 84 | 69 | 10.0 | 16.0 | 0.00 | 0.00 | 0.00 | 25 | 1025.4 |
| 20260902214543 | 84 | 117 | 6.0 | 17.0 | 0.00 | 0.00 | 0.00 | 25 | 1025.4 |
| 20260902214022 | 84 | 152 | 9.0 | 17.0 | 0.00 | 0.00 | 0.00 | 25 | 1025.6 |
| 20260902213525 | 84 | 101 | 10.0 | 16.0 | 0.00 | 0.00 | 0.00 | 24 | 1025.6 |
| 20260902213055 | 84 | 61 | 11.0 | 16.0 | 0.00 | 0.00 | 0.00 | 24 | 1025.6 |
| 20260902212524 | 84 | 109 | 7.0 | 18.0 | 0.00 | 0.00 | 0.00 | 24 | 1025.7 |
| 20260902212025 | 84 | 119 | 7.0 | 18.0 | 0.00 | 0.00 | 0.00 | 24 | 1025.8 |
| 20260902211554 | 83 | 112 | 8.0 | 16.0 | 0.00 | 0.00 | 0.00 | 27 | 1025.7 |
| 20260902211024 | 83 | 20 | 4.0 | 16.0 | 0.00 | 0.00 | 0.00 | 26 | 1025.8 |
| 20260902210525 | 83 | 105 | 6.0 | 16.0 | 0.00 | 0.00 | 0.00 | 27 | 1025.9 |
| 20260902210044 | 83 | 111 | 5.0 | 16.0 | 0.00 | 0.00 | 0.00 | 28 | 1025.9 |
| 20260902205524 | 83 | 146 | 9.0 | 18.0 | 0.00 | 0.00 | 0.00 | 27 | 1026.0 |
| 20260902205027 | 84 | 118 | 8.0 | 18.0 | 0.00 | 0.00 | 0.00 | 28 | 1026.1 |
| 20260902204603 | 83 | 96 | 9.0 | 15.0 | 0.00 | 0.00 | 0.00 | 28 | 1026.1 |
| 20260902204023 | 82 | 84 | 9.0 | 17.0 | 0.00 | 0.00 | 0.00 | 29 | 1026.3 |
| 20260902203525 | 83 | 132 | 9.0 | 17.0 | 0.00 | 0.00 | 0.00 | 29 | 1026.5 |
| 20260902203055 | 83 | 132 | 10.0 | 17.0 | 0.00 | 0.00 | 0.00 | 27 | 1026.5 |
| 20260902202524 | 83 | 134 | 10.0 | 23.0 | 0.00 | 0.00 | 0.00 | 26 | 1026.6 |
| 20260902202027 | 84 | 169 | 9.0 | 23.0 | 0.00 | 0.00 | 0.00 | 28 | 1026.6 |
| 20260902201547 | 84 | 105 | 6.0 | 15.0 | 0.00 | 0.00 | 0.00 | 28 | 1026.6 |
| 20260902201029 | 84 | 99 | 7.0 | 13.0 | 0.00 | 0.00 | 0.00 | 28 | 1026.8 |
| 20260902200526 | 83 | 133 | 4.0 | 18.0 | 0.00 | 0.00 | 0.00 | 29 | 1026.9 |
| 20260902200045 | 82 | 164 | 6.0 | 18.0 | 0.00 | 0.00 | 0.00 | 30 | 1027.0 |
| 20260902195529 | 82 | 89 | 9.0 | 18.0 | 0.00 | 0.00 | 0.00 | 31 | 1027.0 |
| 20260902195024 | 82 | 108 | 6.0 | 18.0 | 0.00 | 0.00 | 0.00 | 30 | 1027.1 |
| 20260902194554 | 82 | 107 | 7.0 | 18.0 | 0.00 | 0.00 | 0.00 | 31 | 1027.1 |
| 20260902194026 | 82 | 113 | 9.0 | 18.0 | 0.00 | 0.00 | 0.00 | 30 | 1027.2 |
| 20260902193523 | 82 | 148 | 7.0 | 14.0 | 0.00 | 0.00 | 0.00 | 31 | 1027.1 |
| 20260902193049 | 82 | 72 | 7.0 | 14.0 | 0.00 | 0.00 | 0.00 | 31 | 1027.3 |
| 20260902192523 | 83 | 96 | 5.0 | 16.0 | 0.00 | 0.00 | 0.00 | 30 | 1027.3 |
| 20260902192024 | 83 | 54 | 6.0 | 16.0 | 0.00 | 0.00 | 0.00 | 31 | 1027.4 |
| 20260902191554 | 82 | 100 | 6.0 | 16.0 | 0.00 | 0.00 | 0.00 | 33 | 1027.6 |
| 20260902191027 | 82 | 182 | 4.0 | 16.0 | 0.00 | 0.00 | 0.00 | 32 | 1027.6 |
| 20260902190525 | 82 | 96 | 7.0 | 16.0 | 0.00 | 0.00 | 0.00 | 33 | 1027.7 |
| 20260902190043 | 82 | 128 | 4.0 | 15.0 | 0.00 | 0.00 | 0.00 | 33 | 1027.8 |
| 20260902185526 | 81 | 92 | 8.0 | 15.0 | 0.00 | 0.00 | 0.00 | 32 | 1027.8 |
| 20260902185023 | 81 | 132 | 8.0 | 14.0 | 0.00 | 0.00 | 0.00 | 33 | 1027.9 |
| 20260902184553 | 81 | 172 | 4.0 | 12.0 | 0.00 | 0.00 | 0.00 | 32 | 1027.9 |
| 20260902184023 | 82 | 112 | 2.0 | 12.0 | 0.00 | 0.00 | 0.00 | 31 | 1028.0 |
| 20260902183524 | 81 | 178 | 1.0 | 14.0 | 0.00 | 0.00 | 0.00 | 31 | 1028.1 |
| 20260902183127 | 81 | 175 | 6.0 | 14.0 | 0.00 | 0.00 | 0.00 | 31 | 1028.2 |
| 20260902182525 | 80 | 119 | 2.0 | 11.0 | 0.00 | 0.00 | 0.00 | 31 | 1028.3 |
| 20260902182026 | 81 | 159 | 5.0 | 10.0 | 0.00 | 0.00 | 0.00 | 30 | 1028.3 |
| 20260902181547 | 80 | 143 | 3.0 | 10.0 | 0.00 | 0.00 | 0.00 | 32 | 1028.4 |
| 20260902181026 | 80 | 92 | 5.0 | 11.0 | 0.00 | 0.00 | 0.00 | 32 | 1028.5 |
| 20260902180524 | 80 | 202 | 1.0 | 11.0 | 0.00 | 0.00 | 0.00 | 31 | 1028.5 |
| 20260902180043 | 80 | 90 | 4.0 | 11.0 | 0.00 | 0.00 | 0.00 | 31 | 1028.5 |
| 20260902175526 | 81 | 94 | 4.0 | 11.0 | 0.00 | 0.00 | 0.00 | 31 | 1028.5 |
| 20260902175024 | 81 | 95 | 6.0 | 11.0 | 0.00 | 0.00 | 0.00 | 30 | 1028.6 |
| 20260902174543 | 80 | 101 | 5.0 | 11.0 | 0.00 | 0.00 | 0.00 | 31 | 1028.7 |
| 20260902174028 | 80 | 92 | 4.0 | 9.0 | 0.00 | 0.00 | 0.00 | 30 | 1028.7 |
| 20260902173524 | 79 | 124 | 4.0 | 14.0 | 0.00 | 0.00 | 0.00 | 31 | 1028.8 |
| 20260902173053 | 79 | 64 | 5.0 | 15.0 | 0.00 | 0.00 | 0.00 | 32 | 1028.7 |
| 20260902172525 | 79 | 104 | 6.0 | 16.0 | 0.00 | 0.00 | 0.00 | 33 | 1028.9 |
| 20260902172025 | 79 | 94 | 2.0 | 16.0 | 0.00 | 0.00 | 0.00 | 33 | 1028.8 |
| 20260902171553 | 79 | 107 | 6.0 | 16.0 | 0.00 | 0.00 | 0.00 | 34 | 1028.8 |
| 20260902171028 | 80 | 96 | 6.0 | 13.0 | 0.00 | 0.00 | 0.00 | 36 | 1028.8 |
| 20260902170523 | 80 | 130 | 3.0 | 9.0 | 0.00 | 0.00 | 0.00 | 36 | 1028.8 |
| 20260902170052 | 79 | 135 | 3.0 | 9.0 | 0.00 | 0.00 | 0.00 | 36 | 1028.8 |
| 20260902165527 | 79 | 109 | 4.0 | 9.0 | 0.00 | 0.00 | 0.00 | 36 | 1028.9 |
| 20260902165025 | 78 | 119 | 2.0 | 11.0 | 0.00 | 0.00 | 0.00 | 36 | 1028.8 |
| 20260902164600 | 78 | 129 | 2.0 | 11.0 | 0.00 | 0.00 | 0.00 | 37 | 1028.8 |
| 20260902164024 | 77 | 130 | 3.0 | 11.0 | 0.00 | 0.00 | 0.00 | 37 | 1028.8 |
| 20260902163524 | 77 | 99 | 3.0 | 10.0 | 0.00 | 0.00 | 0.00 | 39 | 1028.8 |
| 20260902163041 | 78 | 107 | 2.0 | 10.0 | 0.00 | 0.00 | 0.00 | 41 | 1028.6 |
| 20260902162525 | 78 | 105 | 2.0 | 10.0 | 0.00 | 0.00 | 0.00 | 41 | 1028.6 |
| 20260902162026 | 77 | 102 | 3.0 | 10.0 | 0.00 | 0.00 | 0.00 | 44 | 1028.5 |
| 20260902161546 | 76 | 113 | 1.0 | 7.0 | 0.00 | 0.00 | 0.00 | 45 | 1028.7 |
| 20260902161104 | 76 | 126 | 2.0 | 8.0 | 0.00 | 0.00 | 0.00 | 45 | 1028.7 |
| 20260902160523 | 75 | 127 | 3.0 | 8.0 | 0.00 | 0.00 | 0.00 | 46 | 1028.6 |
| 20260902160054 | 75 | 115 | 0.0 | 8.0 | 0.00 | 0.00 | 0.00 | 49 | 1028.6 |
| 20260902155525 | 74 | 110 | 3.0 | 8.0 | 0.00 | 0.00 | 0.00 | 50 | 1028.5 |
| 20260902155028 | 73 | 61 | 2.0 | 8.0 | 0.00 | 0.00 | 0.00 | 49 | 1028.6 |
| 20260902154554 | 73 | 105 | 3.0 | 7.0 | 0.00 | 0.00 | 0.00 | 51 | 1028.5 |
| 20260902154028 | 72 | 73 | 3.0 | 6.0 | 0.00 | 0.00 | 0.00 | 53 | 1028.5 |
| 20260902153525 | 72 | 71 | 3.0 | 7.0 | 0.00 | 0.00 | 0.00 | 53 | 1028.5 |
| 20260902153041 | 72 | 62 | 2.0 | 7.0 | 0.00 | 0.00 | 0.00 | 53 | 1028.5 |
| 20260902152524 | 71 | 94 | 1.0 | 5.0 | 0.00 | 0.00 | 0.00 | 56 | 1028.5 |
| 20260902152029 | 71 | 93 | 2.0 | 6.0 | 0.00 | 0.00 | 0.00 | 56 | 1028.5 |
| 20260902151542 | 71 | 105 | 1.0 | 6.0 | 0.00 | 0.00 | 0.00 | 55 | 1028.5 |
| 20260902151025 | 70 | 105 | 2.0 | 6.0 | 0.00 | 0.00 | 0.00 | 56 | 1028.5 |
| 20260902150523 | 70 | 90 | 3.0 | 6.0 | 0.00 | 0.00 | 0.00 | 57 | 1028.5 |
| 20260902150051 | 70 | 90 | 2.0 | 7.0 | 0.00 | 0.00 | 0.00 | 58 | 1028.5 |
| 20260902145525 | 69 | 96 | 2.0 | 7.0 | 0.00 | 0.00 | 0.00 | 59 | 1028.5 |
| 20260902145028 | 69 | 72 | 3.0 | 6.0 | 0.00 | 0.00 | 0.00 | 59 | 1028.6 |
| 20260902144545 | 69 | 63 | 3.0 | 6.0 | 0.00 | 0.00 | 0.00 | 60 | 1028.5 |
| 20260902144024 | 68 | 76 | 3.0 | 7.0 | 0.00 | 0.00 | 0.00 | 61 | 1028.5 |
| 20260902143524 | 68 | 83 | 3.0 | 7.0 | 0.00 | 0.00 | 0.00 | 60 | 1028.5 |
| 20260902143042 | 68 | 74 | 2.0 | 7.0 | 0.00 | 0.00 | 0.00 | 61 | 1028.4 |
| 20260902142523 | 68 | 70 | 2.0 | 7.0 | 0.00 | 0.00 | 0.00 | 62 | 1028.3 |
| 20260902142023 | 68 | 32 | 0.0 | 4.0 | 0.00 | 0.00 | 0.00 | 62 | 1028.3 |
| 20260902141543 | 67 | 0 | 1.0 | 4.0 | 0.00 | 0.00 | 0.00 | 62 | 1028.1 |
| 20260902141023 | 66 | 0 | 0.0 | 2.0 | 0.00 | 0.00 | 0.00 | 64 | 1028.1 |
| 20260902140524 | 65 | 0 | 0.0 | 2.0 | 0.00 | 0.00 | 0.00 | 67 | 1028.1 |
| 20260902140051 | 65 | 318 | 0.0 | 2.0 | 0.00 | 0.00 | 0.00 | 68 | 1028.0 |
| 20260902135524 | 64 | 318 | 1.0 | 2.0 | 0.00 | 0.00 | 0.00 | 70 | 1028.0 |
| 20260902135024 | 63 | 278 | 0.0 | 3.0 | 0.00 | 0.00 | 0.00 | 71 | 1028.0 |
| 20260902134548 | 62 | 0 | 0.0 | 5.0 | 0.00 | 0.00 | 0.00 | 73 | 1027.8 |
| 20260902134023 | 61 | 320 | 1.0 | 5.0 | 0.00 | 0.00 | 0.00 | 74 | 1027.7 |
| 20260902133529 | 60 | 320 | 2.0 | 5.0 | 0.00 | 0.00 | 0.00 | 76 | 1027.7 |
| 20260902133041 | 59 | 320 | 2.0 | 5.0 | 0.00 | 0.00 | 0.00 | 78 | 1027.6 |
| 20260902132527 | 58 | 320 | 3.0 | 5.0 | 0.00 | 0.00 | 0.00 | 80 | 1027.7 |
| 20260902132023 | 57 | 326 | 0.0 | 3.0 | 0.00 | 0.00 | 0.00 | 82 | 1027.6 |
| 20260902131602 | 56 | 326 | 2.0 | 3.0 | 0.00 | 0.00 | 0.00 | 83 | 1027.6 |
| 20260902131024 | 55 | 326 | 1.0 | 4.0 | 0.00 | 0.00 | 0.00 | 84 | 1027.5 |
| 20260902130523 | 55 | 326 | 2.0 | 5.0 | 0.00 | 0.00 | 0.00 | 84 | 1027.4 |
| 20260902130055 | 55 | 327 | 2.0 | 5.0 | 0.00 | 0.00 | 0.00 | 84 | 1027.4 |
| 20260902125523 | 55 | 329 | 2.0 | 4.0 | 0.00 | 0.01 | 0.00 | 84 | 1027.4 |
| 20260902125023 | 55 | 330 | 1.0 | 4.0 | 0.00 | 0.01 | 0.00 | 85 | 1027.4 |
| 20260902124546 | 55 | 330 | 2.0 | 4.0 | 0.00 | 0.01 | 0.00 | 85 | 1027.3 |
| 20260902124024 | 55 | 331 | 2.0 | 4.0 | 0.00 | 0.01 | 0.00 | 85 | 1027.4 |
| 20260902123525 | 54 | 332 | 3.0 | 4.0 | 0.00 | 0.01 | 0.00 | 85 | 1027.4 |
| 20260902123041 | 54 | 333 | 3.0 | 4.0 | 0.00 | 0.01 | 0.00 | 85 | 1027.4 |
| 20260902122524 | 54 | 334 | 2.0 | 3.0 | 0.00 | 0.01 | 0.00 | 85 | 1027.4 |
| 20260902122027 | 54 | 334 | 2.0 | 4.0 | 0.00 | 0.01 | 0.00 | 85 | 1027.3 |
| 20260902121546 | 54 | 334 | 1.0 | 4.0 | 0.00 | 0.01 | 0.00 | 85 | 1027.3 |
| 20260902121026 | 54 | 334 | 2.0 | 4.0 | 0.00 | 0.01 | 0.00 | 84 | 1027.3 |
| 20260902120524 | 55 | 334 | 2.0 | 4.0 | 0.00 | 0.01 | 0.00 | 84 | 1027.3 |
| 20260902120049 | 55 | 334 | 2.0 | 4.0 | 0.00 | 0.01 | 0.00 | 84 | 1027.2 |
| 20260902115524 | 55 | 334 | 2.0 | 4.0 | 0.00 | 0.02 | 0.00 | 84 | 1027.3 |
| 20260902115024 | 55 | 334 | 2.0 | 4.0 | 0.00 | 0.02 | 0.00 | 84 | 1027.3 |
| 20260902114607 | 55 | 334 | 2.0 | 3.0 | 0.00 | 0.02 | 0.00 | 83 | 1027.3 |
| 20260902114024 | 55 | 334 | 2.0 | 3.0 | 0.00 | 0.02 | 0.00 | 83 | 1027.3 |
| 20260902113524 | 55 | 334 | 1.0 | 3.0 | 0.00 | 0.02 | 0.00 | 83 | 1027.2 |
| 20260902113040 | 55 | 334 | 2.0 | 3.0 | 0.00 | 0.02 | 0.00 | 83 | 1027.2 |
| 20260902112524 | 56 | 334 | 2.0 | 3.0 | 0.00 | 0.02 | 0.00 | 82 | 1027.2 |
| 20260902112024 | 56 | 334 | 0.0 | 2.0 | 0.00 | 0.02 | 0.00 | 81 | 1027.3 |
| 20260902111543 | 56 | 0 | 0.0 | 2.0 | 0.00 | 0.02 | 0.00 | 81 | 1027.2 |
| 20260902111024 | 56 | 334 | 1.0 | 3.0 | 0.00 | 0.02 | 0.00 | 81 | 1027.2 |
| 20260902110523 | 56 | 334 | 1.0 | 4.0 | 0.00 | 0.02 | 0.00 | 81 | 1027.2 |
| 20260902110059 | 57 | 334 | 2.0 | 4.0 | 0.00 | 0.02 | 0.00 | 81 | 1027.3 |
| 20260902105525 | 57 | 334 | 1.0 | 3.0 | 0.00 | 0.02 | 0.00 | 81 | 1027.3 |
| 20260902105027 | 57 | 334 | 2.0 | 4.0 | 0.00 | 0.02 | 0.00 | 81 | 1027.2 |
| 20260902104558 | 57 | 334 | 2.0 | 4.0 | 0.00 | 0.02 | 0.00 | 81 | 1027.2 |
| 20260902104024 | 57 | 335 | 3.0 | 4.0 | 0.00 | 0.02 | 0.00 | 81 | 1027.2 |
| 20260902103523 | 57 | 336 | 2.0 | 4.0 | 0.00 | 0.02 | 0.00 | 80 | 1027.2 |
| 20260902103047 | 57 | 336 | 2.0 | 4.0 | 0.00 | 0.02 | 0.00 | 80 | 1027.2 |
| 20260902102525 | 57 | 338 | 2.0 | 3.0 | 0.00 | 0.02 | 0.00 | 80 | 1027.2 |
| 20260902102024 | 57 | 338 | 1.0 | 3.0 | 0.00 | 0.02 | 0.00 | 79 | 1027.3 |
| 20260902101549 | 58 | 338 | 0.0 | 3.0 | 0.00 | 0.02 | 0.00 | 79 | 1027.2 |
| 20260902101024 | 58 | 338 | 2.0 | 3.0 | 0.00 | 0.02 | 0.00 | 79 | 1027.2 |
| 20260902100524 | 58 | 338 | 2.0 | 3.0 | 0.00 | 0.02 | 0.00 | 78 | 1027.2 |
| 20260902100046 | 58 | 338 | 0.0 | 4.0 | 0.00 | 0.02 | 0.00 | 79 | 1027.2 |
| 20260902095524 | 58 | 0 | 0.0 | 4.0 | 0.00 | 0.02 | 0.00 | 78 | 1027.3 |
| 20260902095023 | 58 | 338 | 3.0 | 4.0 | 0.00 | 0.02 | 0.00 | 78 | 1027.3 |
| 20260902094543 | 58 | 338 | 2.0 | 4.0 | 0.00 | 0.02 | 0.00 | 78 | 1027.2 |
| 20260902094029 | 58 | 338 | 2.0 | 4.0 | 0.00 | 0.02 | 0.00 | 78 | 1027.2 |
| 20260902093523 | 58 | 339 | 2.0 | 4.0 | 0.00 | 0.02 | 0.00 | 78 | 1027.2 |
| 20260902093050 | 58 | 339 | 2.0 | 4.0 | 0.00 | 0.02 | 0.00 | 78 | 1027.2 |
| 20260902092524 | 58 | 0 | 0.0 | 0.0 | 0.00 | 0.02 | 0.00 | 77 | 1027.2 |
| 20260902092023 | 59 | 0 | 0.0 | 0.0 | 0.00 | 0.02 | 0.00 | 77 | 1027.2 |
| 20260902091542 | 59 | 0 | 0.0 | 0.0 | 0.00 | 0.02 | 0.00 | 77 | 1027.3 |
| 20260902091024 | 59 | 0 | 0.0 | 0.0 | 0.00 | 0.02 | 0.00 | 77 | 1027.2 |
| 20260902090524 | 59 | 0 | 0.0 | 3.0 | 0.00 | 0.02 | 0.00 | 77 | 1027.3 |
| 20260902090046 | 59 | 0 | 0.0 | 3.0 | 0.00 | 0.02 | 0.00 | 77 | 1027.3 |
| 20260902085524 | 60 | 339 | 1.0 | 3.0 | 0.00 | 0.03 | 0.00 | 76 | 1027.3 |
| 20260902085024 | 60 | 339 | 2.0 | 3.0 | 0.00 | 0.03 | 0.00 | 76 | 1027.4 |
| 20260902084541 | 60 | 339 | 2.0 | 3.0 | 0.00 | 0.03 | 0.00 | 75 | 1027.4 |
| 20260902084023 | 60 | 339 | 2.0 | 4.0 | 0.00 | 0.03 | 0.00 | 75 | 1027.4 |
| 20260902083525 | 60 | 339 | 2.0 | 4.0 | 0.00 | 0.03 | 0.00 | 75 | 1027.4 |
| 20260902083045 | 61 | 339 | 2.0 | 4.0 | 0.00 | 0.03 | 0.00 | 75 | 1027.5 |
| 20260902082527 | 61 | 339 | 2.0 | 4.0 | 0.00 | 0.03 | 0.00 | 74 | 1027.6 |
| 20260902082026 | 61 | 339 | 2.0 | 4.0 | 0.00 | 0.03 | 0.00 | 74 | 1027.6 |
| 20260902081550 | 62 | 339 | 0.0 | 3.0 | 0.00 | 0.03 | 0.00 | 74 | 1027.6 |
| 20260902081025 | 62 | 339 | 1.0 | 3.0 | 0.00 | 0.03 | 0.00 | 73 | 1027.6 |
| 20260902080527 | 62 | 339 | 1.0 | 3.0 | 0.00 | 0.03 | 0.00 | 73 | 1027.6 |
| 20260902080049 | 62 | 339 | 2.0 | 3.0 | 0.00 | 0.03 | 0.00 | 73 | 1027.6 |
| 20260902075527 | 63 | 339 | 1.0 | 3.0 | 0.00 | 0.03 | 0.00 | 72 | 1027.7 |
| 20260902075026 | 63 | 0 | 0.0 | 0.0 | 0.00 | 0.03 | 0.00 | 72 | 1027.8 |
| 20260902074554 | 63 | 0 | 0.0 | 0.0 | 0.00 | 0.03 | 0.00 | 72 | 1027.8 |
| 20260902074025 | 64 | 0 | 0.0 | 0.0 | 0.00 | 0.03 | 0.00 | 71 | 1027.8 |
| 20260902073526 | 64 | 0 | 0.0 | 0.0 | 0.00 | 0.03 | 0.00 | 71 | 1027.8 |
| 20260902073053 | 64 | 0 | 0.0 | 0.0 | 0.00 | 0.03 | 0.00 | 70 | 1027.7 |
| 20260902072526 | 64 | 0 | 0.0 | 2.0 | 0.00 | 0.03 | 0.00 | 70 | 1027.7 |
| 20260902072024 | 64 | 0 | 0.0 | 2.0 | 0.00 | 0.03 | 0.00 | 69 | 1027.6 |
| 20260902071545 | 64 | 0 | 0.0 | 2.0 | 0.00 | 0.03 | 0.00 | 69 | 1027.7 |
| 20260902071028 | 64 | 339 | 1.0 | 2.0 | 0.00 | 0.03 | 0.00 | 68 | 1027.6 |
| 20260902070524 | 65 | 0 | 0.0 | 1.0 | 0.00 | 0.03 | 0.00 | 68 | 1027.7 |
| 20260902070047 | 65 | 0 | 0.0 | 1.0 | 0.00 | 0.03 | 0.00 | 68 | 1027.6 |
| 20260902065526 | 65 | 0 | 0.0 | 1.0 | 0.00 | 0.03 | 0.00 | 67 | 1027.4 |
| 20260902065024 | 65 | 0 | 0.0 | 0.0 | 0.00 | 0.03 | 0.00 | 67 | 1027.5 |
| 20260902064547 | 66 | 0 | 0.0 | 2.0 | 0.00 | 0.03 | 0.00 | 66 | 1027.6 |
| 20260902064023 | 66 | 0 | 0.0 | 2.0 | 0.00 | 0.03 | 0.00 | 66 | 1027.6 |
| 20260902063527 | 66 | 339 | 1.0 | 2.0 | 0.00 | 0.03 | 0.00 | 66 | 1027.6 |
| 20260902063059 | 66 | 0 | 0.0 | 1.0 | 0.00 | 0.03 | 0.00 | 65 | 1027.6 |
| 20260902062523 | 66 | 0 | 0.0 | 1.0 | 0.00 | 0.03 | 0.00 | 65 | 1027.6 |
| 20260902062024 | 66 | 0 | 0.0 | 1.0 | 0.00 | 0.03 | 0.00 | 65 | 1027.6 |
| 20260902061545 | 66 | 0 | 0.0 | 0.0 | 0.00 | 0.03 | 0.00 | 65 | 1027.6 |
| 20260902061033 | 66 | 0 | 0.0 | 0.0 | 0.00 | 0.03 | 0.00 | 65 | 1027.5 |
| 20260902060527 | 66 | 0 | 0.0 | 0.0 | 0.00 | 0.03 | 0.00 | 65 | 1027.7 |
| 20260902060047 | 66 | 0 | 0.0 | 0.0 | 0.00 | 0.03 | 0.00 | 63 | 1027.6 |
| 20260902055524 | 67 | 0 | 0.0 | 0.0 | 0.00 | 0.03 | 0.03 | 64 | 1027.5 |
| 20260902055026 | 67 | 0 | 0.0 | 0.0 | 0.00 | 0.03 | 0.03 | 63 | 1027.6 |
| 20260902054544 | 67 | 0 | 0.0 | 0.0 | 0.00 | 0.03 | 0.03 | 63 | 1027.6 |
| 20260902054024 | 67 | 0 | 0.0 | 0.0 | 0.00 | 0.03 | 0.03 | 64 | 1027.5 |
| 20260902053524 | 67 | 0 | 0.0 | 0.0 | 0.00 | 0.03 | 0.03 | 63 | 1027.7 |
| 20260902053127 | 67 | 0 | 0.0 | 0.0 | 0.00 | 0.03 | 0.03 | 63 | 1027.6 |
| 20260902052524 | 67 | 0 | 0.0 | 1.0 | 0.00 | 0.03 | 0.03 | 61 | 1027.7 |
| 20260902052023 | 67 | 0 | 0.0 | 1.0 | 0.00 | 0.03 | 0.03 | 62 | 1027.7 |
| 20260902051548 | 68 | 0 | 0.0 | 1.0 | 0.00 | 0.03 | 0.03 | 61 | 1027.8 |
| 20260902051024 | 68 | 0 | 0.0 | 0.0 | 0.00 | 0.03 | 0.03 | 61 | 1027.7 |
| 20260902050526 | 68 | 0 | 0.0 | 3.0 | 0.00 | 0.03 | 0.03 | 61 | 1027.6 |
| 20260902050044 | 68 | 0 | 0.0 | 4.0 | 0.00 | 0.03 | 0.03 | 59 | 1027.6 |
| 20260902045526 | 68 | 0 | 1.0 | 4.0 | 0.00 | 0.05 | 0.03 | 59 | 1027.6 |
| 20260902045023 | 68 | 326 | 0.0 | 4.0 | 0.00 | 0.05 | 0.03 | 59 | 1027.7 |
| 20260902044544 | 68 | 326 | 1.0 | 4.0 | 0.00 | 0.05 | 0.03 | 59 | 1027.7 |
| 20260902044024 | 68 | 325 | 1.0 | 4.0 | 0.00 | 0.05 | 0.03 | 59 | 1027.8 |
| 20260902043523 | 68 | 320 | 1.0 | 4.0 | 0.00 | 0.05 | 0.03 | 60 | 1027.7 |
| 20260902043055 | 68 | 0 | 0.0 | 3.0 | 0.00 | 0.05 | 0.03 | 60 | 1027.8 |
| 20260902042524 | 68 | 314 | 1.0 | 3.0 | 0.00 | 0.05 | 0.03 | 60 | 1027.8 |
| 20260902042024 | 68 | 310 | 1.0 | 3.0 | 0.00 | 0.05 | 0.03 | 61 | 1027.7 |
| 20260902041602 | 67 | 0 | 0.0 | 1.0 | 0.00 | 0.05 | 0.03 | 62 | 1027.7 |
| 20260902041026 | 67 | 0 | 0.0 | 2.0 | 0.00 | 0.05 | 0.03 | 64 | 1027.7 |
| 20260902040526 | 67 | 310 | 0.0 | 2.0 | 0.00 | 0.05 | 0.03 | 64 | 1027.6 |
| 20260902040046 | 67 | 0 | 0.0 | 2.0 | 0.00 | 0.05 | 0.03 | 65 | 1027.6 |
| 20260902035523 | 67 | 0 | 0.0 | 2.0 | 0.00 | 0.05 | 0.03 | 67 | 1027.6 |
| 20260902035027 | 67 | 310 | 0.0 | 1.0 | 0.00 | 0.05 | 0.03 | 68 | 1027.6 |
| 20260902034554 | 67 | 0 | 0.0 | 1.0 | 0.00 | 0.05 | 0.03 | 67 | 1027.4 |
| 20260902034023 | 67 | 0 | 0.0 | 1.0 | 0.00 | 0.05 | 0.03 | 67 | 1027.4 |
| 20260902033524 | 67 | 0 | 0.0 | 2.0 | 0.00 | 0.05 | 0.03 | 68 | 1027.3 |
| 20260902033054 | 67 | 0 | 0.0 | 2.0 | 0.00 | 0.05 | 0.03 | 69 | 1027.2 |
| 20260902032526 | 67 | 310 | 0.0 | 2.0 | 0.00 | 0.05 | 0.03 | 68 | 1027.0 |
| 20260902032029 | 67 | 0 | 0.0 | 3.0 | 0.00 | 0.05 | 0.03 | 68 | 1027.0 |
| 20260902031557 | 67 | 0 | 0.0 | 3.0 | 0.00 | 0.05 | 0.03 | 68 | 1026.9 |
| 20260902031024 | 68 | 0 | 0.0 | 3.0 | 0.00 | 0.05 | 0.03 | 68 | 1026.9 |
| 20260902030527 | 68 | 310 | 1.0 | 4.0 | 0.00 | 0.05 | 0.03 | 67 | 1026.7 |
| 20260902030046 | 68 | 310 | 0.0 | 4.0 | 0.00 | 0.05 | 0.03 | 67 | 1026.6 |
| 20260902025525 | 68 | 310 | 2.0 | 4.0 | 0.00 | 0.05 | 0.03 | 67 | 1026.6 |
| 20260902025028 | 68 | 310 | 1.0 | 4.0 | 0.00 | 0.05 | 0.03 | 67 | 1026.5 |
| 20260902024541 | 68 | 310 | 1.0 | 5.0 | 0.00 | 0.05 | 0.03 | 66 | 1026.5 |
| 20260902024024 | 68 | 309 | 1.0 | 5.0 | 0.00 | 0.05 | 0.03 | 65 | 1026.4 |
| 20260902023524 | 68 | 0 | 2.0 | 5.0 | 0.00 | 0.05 | 0.03 | 64 | 1026.3 |
| 20260902023049 | 68 | 319 | 2.0 | 8.0 | 0.00 | 0.05 | 0.03 | 64 | 1026.3 |
| 20260902022529 | 69 | 281 | 2.0 | 9.0 | 0.00 | 0.05 | 0.03 | 65 | 1026.3 |